This demonstration page uses our WeatherBlox Daily Observations layout. Learn more.

38.88101, -77.10428

Hourly Observations for January 15, 2017

Temp ( °F °C ) Dew Point ( °F °C ) Humidity (%) Winds ( mph kmh ) Pressure ( in mb ) Visibility ( mi km ) Precip ( " mm )
12:52 am 00:52 Cloudy 37 2.8 34 1.1 89 89 Calm 30.32 1027 8 12.87472 0 0
1:52 am 01:52 Cloudy with Mist and Fog 37 2.8 35 1.7 93 93 N 6 9 30.31 1027 5 8.0467 0 0
2:20 am 02:20 Cloudy with Mist and Fog 37 3 36 2 93 93 NNW 7 11 30.33 1027 5 8.0467 0 0
2:52 am 02:52 Cloudy with Mist and Fog 37 2.8 35 1.7 93 93 NW 8 13 30.32 1027 6 9.65604 0 0
3:08 am 03:08 Cloudy with Mist and Fog 37 3 36 2 93 93 NW 6 9 30.33 1027 6 9.65604 0 0
3:18 am 03:18 Cloudy 37 3 36 2 93 93 NW 6 9 30.33 1027 7 11.26538 0 0
3:42 am 03:42 Cloudy 37 3 36 2 93 93 NNW 7 11 30.33 1027 8 12.87472 0 0
3:52 am 03:52 Cloudy 37 2.8 35 1.7 93 93 N 7 11 30.32 1027 8 12.87472 0 0
4:52 am 04:52 Cloudy 38 3.3 35 1.7 89 89 NNW 8 13 30.33 1027 10 16.0934 0 0
5:52 am 05:52 Mostly Cloudy 37 2.8 34 1.1 89 89 N 5 7 30.35 1028 10 16.0934 0 0
6:52 am 06:52 Mostly Cloudy 37 2.8 34 1.1 89 89 N 8 13 30.37 1029 10 16.0934 0 0
7:52 am 07:52 Mostly Cloudy 38 3.3 34 1.1 86 86 N 8 13 30.4 1030 10 16.0934 0 0
8:52 am 08:52 Mostly Cloudy 40 4.4 34 1.1 79 79 NNW 8 13 30.43 1030 10 16.0934 0 0
9:52 am 09:52 Mostly Cloudy 43 6.1 32 0 65 65 N 7 11 30.44 1031 10 16.0934 0 0
10:52 am 10:52 Mostly Cloudy 45 7.2 22 -5.6 40 40 N 10 17 30.43 1030 10 16.0934 0 0
11:52 am 11:52 Mostly Cloudy 47 8.3 21 -6.1 36 36 NNE 9 15 30.4 1029 10 16.0934 0 0
12:52 pm 12:52 Mostly Cloudy 46 8 18 -8 32 32 N 9 15 30.39 1029 10 16.0934 0 0
1:52 pm 13:52 Mostly Cloudy 48 8.9 17 -8.3 29 29 NE 5 7 30.35 1028 10 16.0934 0 0
2:52 pm 14:52 Mostly Cloudy 48 8.9 17 -8.3 29 29 NNE 6 9 30.36 1028 10 16.0934 0 0
3:52 pm 15:52 Mostly Cloudy 47 8.3 19 -7.2 33 33 NNE 5 7 30.37 1028 10 16.0934 0 0
4:52 pm 16:52 Cloudy 46 7.8 19 -7.2 34 34 NNE 7 11 30.37 1029 10 16.0934 0 0
5:52 pm 17:52 Mostly Cloudy 44 6.7 23 -5 43 43 N 6 9 30.39 1029 10 16.0934 0 0
6:52 pm 18:52 Cloudy 43 6.1 26 -3.3 51 51 NE 6 9 30.4 1030 10 16.0934 0 0
7:52 pm 19:52 Mostly Cloudy 42 5.6 25 -3.9 51 51 E 5 7 30.4 1030 10 16.0934 0 0
8:52 pm 20:52 Cloudy 41 5 29 -1.7 62 62 ESE 3 6 30.42 1030 10 16.0934 0 0
9:52 pm 21:52 Cloudy 41 5 28 -2.2 60 60 SE 3 6 30.43 1030 10 16.0934 0 0
10:52 pm 22:52 Cloudy 40 4.4 27 -2.8 60 60 Calm 30.42 1030 10 16.0934 0 0
11:52 pm 23:52 Cloudy 40 4.4 28 -2.2 63 63 ESE 3 6 30.42 1030 10 16.0934 0 0

Powered by AerisWeather